Location: Star Hoppers Observatory
(42.7905°N, 83.6127°W)
Time: 12:17:14
(UTC-04:00)

NOSS 3-1 (A) - Visible Passes

Search period start: 01 October 2014 00:00
Search period end: 11 October 2014 00:00
Orbit: 896 x 1317 km, 63.4° (Epoch: 26 August)

Date Brightness Start Highest point End Pass type
(mag) Time Alt. Az. Time Alt. Az. Time Alt. Az.
01 Oct 4.9 04:05:18 28° ESE 04:05:18 28° ESE 04:10:35 10° NE visible
01 Oct 3.7 05:52:47 31° WSW 05:55:39 56° NW 06:02:16 10° NNE visible
02 Oct 5.8 03:22:28 15° E 03:22:28 15° E 03:24:48 10° ENE visible
02 Oct 3.3 05:09:57 67° SW 05:10:53 84° NW 05:17:36 10° NE visible
02 Oct 4.9 06:57:54 10° W 07:02:54 23° NNW 07:08:17 10° NNE visible
03 Oct 3.9 04:27:03 58° E 04:27:03 58° E 04:32:48 10° NE visible
03 Oct 4.5 06:14:31 21° W 06:17:42 31° NW 06:23:42 10° NNE visible
04 Oct 5.1 03:44:06 29° ENE 03:44:06 29° ENE 03:47:49 10° NE visible
04 Oct 3.9 05:31:34 41° WNW 05:32:40 44° NW 05:39:07 10° NNE visible
05 Oct 5.9 03:01:06 15° ENE 03:01:06 15° ENE 03:02:28 10° ENE visible
05 Oct 3.7 04:48:34 60° NNW 04:48:34 60° NNW 04:54:29 10° NNE visible
05 Oct 5.1 06:36:02 12° WNW 06:40:10 20° NNW 06:45:07 10° NNE visible
06 Oct 4.6 04:05:32 41° NE 04:05:32 41° NE 04:09:47 10° NE visible
06 Oct 4.7 05:52:59 23° WNW 05:54:53 26° NNW 06:00:31 10° NNE visible
07 Oct 5.5 03:22:27 23° NE 03:22:27 23° NE 03:24:55 10° NE visible
07 Oct 4.4 05:09:54 35° NW 05:09:54 35° NW 05:15:56 10° NNE visible
07 Oct 5.5 06:59:22 10° NW 07:03:00 15° NNW 07:06:49 10° NNE visible
08 Oct 6.2 02:39:21 12° NE 02:39:21 12° NE 02:39:49 10° NE visible
08 Oct 4.5 04:26:48 38° N 04:26:48 38° N 04:31:21 10° NNE visible
08 Oct 5.3 06:14:15 13° NW 06:17:30 18° NNW 06:22:00 10° NNE visible
09 Oct 5.2 03:43:40 28° NNE 03:43:40 28° NNE 03:46:42 10° NE visible
09 Oct 5.0 05:31:07 21° NW 05:32:07 22° NNW 05:37:21 10° NNE visible
10 Oct 5.9 03:00:30 17° NE 03:00:30 17° NE 03:01:56 10° NE visible
10 Oct 4.9 04:47:57 28° NNW 04:47:57 28° NNW 04:52:46 10° NNE visible
10 Oct 5.6 06:37:05 10° NW 06:40:26 14° N 06:43:56 10° NNE visible
